Weather Service Report


463 
ASUS43 KFSD 210510
RWRFSD

WEATHER ROUNDUP FOR SE SOUTH DAKOTA/SW MINNESOTA/NW IOWA
NATIONAL WEATHER SERVICE SIOUX FALLS SD
1100 PM CST FRI JAN 20 2017

NOTE: "FAIR" INDICATES FEW OR NO CLOUDS BELOW 12,000 FEET WITH NO
SIGNIFICANT WEATHER AND OR OBSTRUCTIONS TO VISIBILITY.


SDZ038>040-050-052>070-210600-
SOUTHEAST SOUTH DAKOTA
  
CITY           SKY/WX    TMP DP  RH WIND       PRES   REMARKS
BROOKINGS      FOG       36  35  96 SE15      29.40S VSB 1/2          
CHAMBERLAIN    CLOUDY    33  31  94 CALM      29.35S                  
HURON          CLOUDY    38  38 100 S13       29.35S FOG              
MADISON        CLOUDY    36  36 100 SE12        N/A                   
MITCHELL       CLOUDY    39  39 100 S10       29.38S FOG              
SIOUX FALLS    LGT RAIN  38  38 100 SE8       29.41F VSB 1/2          
WINNER         CLOUDY    34  30  85 W5        29.35R WCI  30          
YANKTON        CLOUDY    39  37  93 SE7       29.38F                  
$$

MNZ071-072-080-081-089-090-097-098-210600-
SOUTHWEST MINNESOTA
  
CITY           SKY/WX    TMP DP  RH WIND       PRES   REMARKS
FAIRMONT       FOG       34  33  96 SE9       29.49F VSB 1/2 WCI  27  
JACKSON        FOG       32  32 100 SE7       29.47F VSB 1/2 WCI  26  
LUVERNE        DRIZZLE   36  34  93 SE6       29.43F                  
MARSHALL       CLOUDY    35  34  96 SE8       29.45S FOG     WCI  29  
MONTEVIDEO     CLOUDY    34  34 100 S12       29.47S FOG     WCI  25  
PIPESTONE      FOG       36  36 100 SE9       29.42S VSB 1/4          
REDWOOD FALLS  FOG       34  33  96 SE9       29.47F VSB 1   WCI  27  
TRACY          CLOUDY    36  36 100 S9        29.45S                  
WINDOM         FOG       36  34  93 SE9       29.46F VSB 3/4          
WORTHINGTON    FOG       34  34 100 SE9       29.45F VSB 1/2 WCI  27  
$$

IAZ001>003-012>014-020>022-031-032-NEZ013-014-SDZ071-210600-
NORTHWEST IOWA
  
CITY           SKY/WX    TMP DP  RH WIND       PRES   REMARKS
CHEROKEE       CLOUDY    36  36 100 CALM      29.45S                  
DENISON        CLOUDY    39  39 100 CALM      29.41F FOG              
ESTHERVILLE    FOG       33  33 100 SE7       29.47F VSB 1/4 WCI  27  
LE MARS        CLOUDY    37  37 100 SE6       29.43F                  
ORANGE CITY    CLOUDY    36  36 100 SE7       29.43S FOG              
SHELDON        FOG       36  36 100 SE9       29.42F VSB 3/4          
SIOUX CITY     CLOUDY    39  38  96 SE7       29.41F FOG              
SPENCER        CLOUDY    35  35 100 E8        29.45F FOG     WCI  29  
STORM LAKE     FOG       36  36 100 SE8       29.44F VSB<1/4          
$$
 
ABBREVIATIONS USED IN REMARKS
   TC - TEMPERATURE IN CELSIUS
  WCI - WIND CHILL INDEX
   HX - HEAT INDEX
  VSB - VISIBILITY

  


465 
ASUS43 KFSD 210510
RWRSD 

WEATHER ROUNDUP FOR SOUTH DAKOTA
NATIONAL WEATHER SERVICE SIOUX FALLS SD
1100 PM CST FRI JAN 20 2017

NOTE: "FAIR" INDICATES FEW OR NO CLOUDS BELOW 12,000 FEET WITH NO
SIGNIFICANT WEATHER AND/OR OBSTRUCTIONS TO VISIBILITY.


SDZ001>005-009-010-012>017-210600-
NORTHWEST AND NORTH CENTRAL SOUTH DAKOTA
  
CITY           SKY/WX    TMP DP  RH WIND       PRES   REMARKS
BUFFALO          N/A     36  31  82 W25       29.27S                  
FAITH            N/A     22  21  96 NW9       29.31S WCI  12          
MOBRIDGE       CLOUDY    24  21  88 SE3       29.28F FOG              
$$
 
SDZ012>016-024>037-041>051-057-063-072>074-210600-
SOUTHWEST AND SOUTH CENTRAL SOUTH DAKOTA
  
CITY           SKY/WX    TMP DP  RH WIND       PRES   REMARKS
RAPID CTY ARPT CLOUDY    36  31  82 NW9       29.35S                  
PIERRE         CLOUDY    24  22  91 SW8       29.33S FOG     WCI  15  
CUSTER         LGT SNOW  30  28  92 CALM      29.32F FOG              
ELLSWORTH AFB  CLOUDY    37  32  81 NW17      29.34S                  
PHILIP         CLOUDY    26  24  92 NW3       29.33S                  
PINE RIDGE     CLOUDY    35  33  92 W7        29.36S WCI  29          
SPEARFISH        N/A    N/A N/A N/A MISG        N/A                   
WINNER         CLOUDY    34  30  85 W5        29.35R WCI  30          
$$
 
SDZ004>011-016>023-039-040-210600-
NORTHEAST SOUTH DAKOTA
  
CITY           SKY/WX    TMP DP  RH WIND       PRES   REMARKS
ABERDEEN       CLOUDY    32  28  85 CALM      29.35F                  
WATERTOWN      FOG       34  34 100 S13       29.37S VSB 1/4 WCI  25  
BROOKINGS      FOG       36  35  96 SE15      29.40S VSB 1/2          
SISSETON         N/A     34  34 100 S13       29.39F WCI  25          
$$
 
SDZ017-020-022-023-036>040-048>070-210600-
SOUTHEAST SOUTH DAKOTA
  
CITY           SKY/WX    TMP DP  RH WIND       PRES   REMARKS
SIOUX FALLS    LGT RAIN  38  38 100 SE8       29.41F VSB 1/2          
HURON          CLOUDY    38  38 100 S13       29.35S FOG              
CHAMBERLAIN    CLOUDY    33  31  94 CALM      29.35S                  
MITCHELL       CLOUDY    39  39 100 S10       29.38S FOG              
YANKTON        CLOUDY    39  37  93 SE7       29.38F                  
$$
 
ABBREVIATIONS USED IN REMARKS
   TC - TEMPERATURE IN CELSIUS
  WCI - WIND CHILL INDEX
   HX - HEAT INDEX
  VSB - VISIBILITY

  

Return to Home page


Western Regional Climate Center, wrcc@dri.edu